Weather reports worldwide

Advertisment
Ronchi Dei Legionari, Italy (16108): temperature & dewpoint: 12.10.2018 19:00:00 - 18.10.2018 19:00:00 (CEST)Ronchi Dei Legionari, Italy (16108): wind speed: 12.10.2018 19:00:00 - 18.10.2018 19:00:00 (CEST)Ronchi Dei Legionari, Italy (16108): wind direction: 12.10.2018 19:00:00 - 18.10.2018 19:00:00 (CEST)Ronchi Dei Legionari, Italy (16108): reduced air pressure: 12.10.2018 19:00:00 - 18.10.2018 19:00:00 (CEST)Ronchi Dei Legionari, Italy (16108): visibility: 12.10.2018 19:00:00 - 18.10.2018 19:00:00 (CEST)Ronchi Dei Legionari, Italy (16108): precipitation: 12.10.2018 19:00:00 - 18.10.2018 19:00:00 (CEST)
Date & Time tt [°C] td [°C] ff [km/h] ff [kn] dd ppp [hPa] vv [km] rr [mm]
18.10.2018 19:00:00 - - - - - - - -
18.10.2018 18:00:00 21,0 14,0 5 3 SW - 10 -
18.10.2018 17:00:00 24,1 13,8 4 2 W 1014,8 10 0,0
18.10.2018 16:00:00 23,0 13,0 5 3 WSW - 10 -
18.10.2018 15:00:00 24,0 12,0 2 1 - - 10 -
18.10.2018 14:00:00 23,0 13,0 8 4 SE - 10 -
18.10.2018 13:00:00 23,0 13,0 5 3 N - 10 -
18.10.2018 12:00:00 22,0 12,0 2 1 - - 10 -
18.10.2018 11:00:00 22,0 12,9 5 3 E 1016,8 10 0,0
18.10.2018 10:00:00 15,0 14,0 4 2 N - 10 -
18.10.2018 09:00:00 14,0 12,0 5 3 N - 10 -
18.10.2018 08:00:00 13,9 12,6 9 5 N 1016,0 8 -
18.10.2018 07:00:00 13,0 12,0 4 2 - - 9 -
18.10.2018 06:00:00 14,0 13,0 5 3 N - 9 -
18.10.2018 05:00:00 13,5 12,5 5 3 N 1016,1 10 0,0
18.10.2018 04:00:00 16,0 13,0 8 4 NNE - 10 -
18.10.2018 03:00:00 16,0 14,0 5 3 N - 10 -
18.10.2018 02:00:00 16,2 14,4 8 4 N 1017,1 10 -
18.10.2018 01:00:00 17,0 15,0 8 4 N - 10 -
18.10.2018 00:00:00 17,0 15,0 9 5 N - 10 -
17.10.2018 23:00:00 16,9 15,3 5 3 NNW 1018,1 10 0,0
17.10.2018 22:00:00 17,0 15,0 8 4 N - 10 -
17.10.2018 21:00:00 18,0 15,0 5 3 N - 10 -
17.10.2018 20:00:00 17,9 16,0 4 2 N 1017,8 10 -
17.10.2018 19:00:00 19,0 16,0 8 4 N - 10 -
17.10.2018 18:00:00 20,0 16,0 9 5 N - 10 -
17.10.2018 17:00:00 20,1 16,1 11 6 N 1017,8 10 0,0
17.10.2018 16:00:00 20,0 16,0 11 6 NNW - 10 -
17.10.2018 15:00:00 20,0 15,0 11 6 N - 10 -
17.10.2018 14:00:00 19,8 15,7 9 5 N 1018,8 10 -
17.10.2018 13:00:00 19,0 15,0 13 7 N - 10 -
17.10.2018 12:00:00 17,0 15,0 8 4 NNE - 10 -
17.10.2018 11:00:00 16,7 14,4 8 4 N 1020,3 10 0,0
17.10.2018 10:00:00 17,0 14,0 4 2 - - 10 -
17.10.2018 09:00:00 16,0 13,0 5 3 N - 10 -
17.10.2018 08:00:00 15,6 12,9 8 4 NNE 1019,3 10 -
17.10.2018 07:00:00 16,0 13,0 8 4 NNE - 10 -
17.10.2018 06:00:00 15,0 14,0 9 5 NNE - 10 -
17.10.2018 05:00:00 15,6 12,8 8 4 N 1019,0 10 0,0
17.10.2018 04:00:00 14,0 13,0 4 2 - - 10 -
17.10.2018 03:00:00 14,0 12,0 4 2 N - 10 -
17.10.2018 02:00:00 13,8 12,5 2 1 NNE 1020,2 10 -
17.10.2018 01:00:00 14,0 13,0 5 3 NNE - 10 -
17.10.2018 00:00:00 14,0 13,0 9 5 N - 10 -
16.10.2018 23:00:00 14,3 12,8 4 2 NNE 1020,9 10 0,0
16.10.2018 22:00:00 15,0 14,0 4 2 - - 10 -
16.10.2018 21:00:00 17,0 14,0 8 4 E - 10 -
16.10.2018 20:00:00 16,3 14,1 5 3 ENE 1021,2 10 -
16.10.2018 19:00:00 18,0 14,0 2 1 - - 10 -
16.10.2018 18:00:00 21,0 14,0 2 1 WNW - 10 -
16.10.2018 17:00:00 20,7 13,4 5 3 N 1020,6 10 0,0
16.10.2018 16:00:00 21,0 14,0 5 3 N - 10 -
16.10.2018 15:00:00 21,0 13,0 5 3 N - 10 -
16.10.2018 14:00:00 20,5 12,7 5 3 N 1020,8 10 -
16.10.2018 13:00:00 20,0 12,0 2 1 - - 10 -
16.10.2018 12:00:00 20,0 12,0 4 2 - - 10 -
16.10.2018 11:00:00 18,0 11,7 5 3 NNE 1020,9 10 0,0
16.10.2018 10:00:00 16,0 12,0 5 3 N - 10 -
16.10.2018 09:00:00 14,0 11,0 9 5 NNE - 10 -
16.10.2018 08:00:00 12,9 10,4 8 4 N 1020,1 10 -
16.10.2018 07:00:00 13,0 10,0 9 5 N - 10 -
16.10.2018 06:00:00 13,0 10,0 9 5 N - 10 -
16.10.2018 05:00:00 13,4 10,7 8 4 N 1019,9 10 0,0
16.10.2018 04:00:00 13,0 11,0 8 4 N - 10 -
16.10.2018 03:00:00 13,0 11,0 5 3 N - 10 -
16.10.2018 02:00:00 14,0 10,9 4 2 - 1020,3 10 -
16.10.2018 01:00:00 16,0 12,0 4 2 - - 10 -
16.10.2018 00:00:00 16,0 11,0 4 2 - - 10 -
15.10.2018 23:00:00 15,6 11,9 8 4 N 1020,7 10 0,0
15.10.2018 22:00:00 - - - - - - - -
15.10.2018 21:00:00 17,0 12,0 4 2 - - 10 -
15.10.2018 20:00:00 17,1 12,6 2 1 N 1020,6 10 -
15.10.2018 19:00:00 18,0 12,0 5 3 NE - 9 -
15.10.2018 18:00:00 18,0 12,0 8 4 NNE - 10 -
15.10.2018 17:00:00 19,1 13,2 4 2 NNE 1019,8 10 0,0
15.10.2018 16:00:00 19,0 13,0 8 4 NNE - 10 -
15.10.2018 15:00:00 19,0 13,0 5 3 NE - 10 -
15.10.2018 14:00:00 18,9 12,8 4 2 - 1020,0 10 -
15.10.2018 13:00:00 18,0 13,0 4 2 N - 10 -
15.10.2018 12:00:00 18,0 12,0 8 4 NE - 10 -
15.10.2018 11:00:00 17,7 12,0 5 3 ENE 1020,0 10 0,0
15.10.2018 10:00:00 16,0 13,0 4 2 - - 10 -
15.10.2018 09:00:00 14,0 12,0 2 1 - - 10 -
15.10.2018 08:00:00 13,5 10,6 4 2 N 1018,8 10 -
15.10.2018 07:00:00 14,0 10,0 4 2 NW - 10 -
15.10.2018 06:00:00 14,0 9,0 4 2 N - 10 -
15.10.2018 05:00:00 12,9 9,5 2 1 - 1018,3 10 0,0
15.10.2018 04:00:00 13,0 10,0 5 3 N - 10 -
15.10.2018 03:00:00 13,0 10,0 9 5 N - 10 -
15.10.2018 02:00:00 11,6 9,0 5 3 N 1019,2 10 -
15.10.2018 01:00:00 13,0 8,0 4 2 NE - 10 -
15.10.2018 00:00:00 13,0 9,0 8 4 NNE - 10 -
14.10.2018 23:00:00 13,8 9,2 4 2 - 1019,5 10 0,0
14.10.2018 22:00:00 13,0 10,0 8 4 N - 10 -
14.10.2018 21:00:00 14,0 10,0 4 2 - - 10 -
14.10.2018 20:00:00 15,4 10,9 4 2 SE 1019,3 10 -
14.10.2018 19:00:00 18,0 11,0 2 1 - - 10 -
14.10.2018 18:00:00 21,0 11,0 4 2 WSW - 10 -
14.10.2018 17:00:00 22,5 10,8 13 7 SSW 1018,5 10 0,0
14.10.2018 16:00:00 24,0 10,0 9 5 S - 10 -
14.10.2018 15:00:00 24,0 9,0 13 7 SSE - 10 -
14.10.2018 14:00:00 23,9 8,8 13 7 ESE 1019,8 10 -
14.10.2018 13:00:00 24,0 9,0 16 9 E - 10 -
14.10.2018 12:00:00 23,0 9,0 16 9 ESE - 10 -
14.10.2018 11:00:00 21,5 9,3 4 2 - 1021,2 10 0,0
14.10.2018 10:00:00 18,0 11,0 5 3 WNW - 10 -
14.10.2018 09:00:00 13,0 11,0 4 2 - - 10 -
14.10.2018 08:00:00 11,4 8,2 5 3 NNW 1020,9 10 -
14.10.2018 07:00:00 11,0 8,0 5 3 NW - 10 -
14.10.2018 06:00:00 12,0 9,0 5 3 N - 10 -
14.10.2018 05:00:00 13,0 9,1 4 2 - 1021,4 10 0,0
14.10.2018 04:00:00 13,0 9,0 5 3 N - 10 -
14.10.2018 03:00:00 13,0 9,0 5 3 W - 10 -
14.10.2018 02:00:00 12,8 9,0 5 3 WNW 1022,1 10 -
14.10.2018 01:00:00 20,0 10,0 15 8 E - 10 -
14.10.2018 00:00:00 19,0 9,0 8 4 E - 10 -
13.10.2018 23:00:00 19,4 8,9 9 5 E 1022,7 10 0,0
13.10.2018 22:00:00 20,0 8,0 11 6 E - 10 -
13.10.2018 21:00:00 18,0 9,0 8 4 N - 10 -
13.10.2018 20:00:00 20,7 8,7 8 4 NE 1022,8 10 -
13.10.2018 19:00:00 - - - - - - - -
13.10.2018 18:00:00 23,0 8,0 16 9 E - 10 -
13.10.2018 17:00:00 23,8 7,9 18 10 E 1022,2 10 0,0
13.10.2018 16:00:00 25,0 8,0 24 13 E - 10 -
13.10.2018 15:00:00 25,0 9,0 24 13 E - 10 -
13.10.2018 14:00:00 25,2 8,7 22 12 E 1023,4 10 -
13.10.2018 13:00:00 25,0 9,0 24 13 E - 10 -
13.10.2018 12:00:00 24,0 10,0 28 15 E - 10 -
13.10.2018 11:00:00 22,8 10,5 4 2 - 1024,8 10 0,0
13.10.2018 10:00:00 17,0 13,0 5 3 WNW - 10 -
13.10.2018 09:00:00 13,0 11,0 5 3 N - 8 -
13.10.2018 08:00:00 9,5 8,7 5 3 N 1024,7 8 -
13.10.2018 07:00:00 9,0 9,0 4 2 N - 9 -
13.10.2018 06:00:00 9,0 8,0 4 2 - - 6 -
13.10.2018 05:00:00 9,9 8,9 5 3 NNW 1024,7 10 0,0
13.10.2018 04:00:00 11,0 10,0 9 5 NNW - 10 -
13.10.2018 03:00:00 11,0 9,0 4 2 NNW - 10 -
13.10.2018 02:00:00 10,6 9,4 2 1 - 1025,2 10 -
13.10.2018 01:00:00 12,0 10,0 5 3 NE - 10 -
13.10.2018 00:00:00 12,0 10,0 5 3 N - 10 -
12.10.2018 23:00:00 12,1 10,4 4 2 NW 1025,9 10 0,0
12.10.2018 22:00:00 14,0 11,0 4 2 - - 10 -
12.10.2018 21:00:00 15,0 13,0 2 1 - - 10 -
12.10.2018 20:00:00 16,4 12,8 5 3 ESE 1025,2 10 -
12.10.2018 19:00:00 21,0 13,0 4 2 - - 10 -

tt = temperature
td = dewpoint
ff = wind speed
dd = wind direction
ppp = reduced air pressure
vv = visibility
rr = precipitation

Next stations